User: anonymous   Login
Location: Cicognara
(44.9500°N, 10.4667°E)
Time: 05:40:53
(UTC+00:00)
Language:

Cosmos 2333 Rocket - Orbit

View from above orbital plane
View from above orbital plane
View from above satellite
View from above satellite

Ground track
Ground track

The orbit data is extracted from the following two-line orbital elements,

1 24298U 96051B   21261.49976727 -.00000193  00000-0 -78301-4 0  9997
2 24298  70.8268  24.6665 0014156  24.0824 336.0955 14.12417479291030
Epoch (UTC): 18 September 2021 11:59:39
Eccentricity: 0.0014156
inclination: 70.8268°
perigee height: 841 km
apogee height: 861 km
right ascension of ascending node: 24.6665°
argument of perigee: 24.0824°
revolutions per day: 14.12417479
mean anomaly at epoch: 336.0955°
orbit number at epoch: 29103

The dashed part of the orbit path shows where the satellite is in the earth's shadow,  

DLR